contact:dominique.lefevre@mio.osupytheas.fr, maurice.libes@osupytheas.fr, didier.mallarino@osupytheas.fr
Project:EMSO http://www.emso-fr.org/EMSO-France
Depth: 2436.0 m
Title:EMSO Ligure Ouest : Data MII capteur MICROCAT
DateTime_Computer,Latitude,Longitude,Temperature,Conductivity,Pressure,DateTime_Instrument
DateTime_Computer,Latitude,Longitude,degC,S m-1,dbar,DateTime_Instrument
2023-08-29T00:02:58Z,42.805,6.029,13.3030,4.60097,2470.661,2023-8-29T02:05:18Z
2023-08-29T00:06:01Z,42.805,6.029,13.3033,4.60095,2470.624,2023-8-29T02:08:21Z
2023-08-29T00:09:04Z,42.805,6.029,13.3029,4.60097,2470.646,2023-8-29T02:11:25Z
2023-08-29T00:12:07Z,42.805,6.029,13.3031,4.60098,2470.624,2023-8-29T02:14:28Z
2023-08-29T00:15:10Z,42.805,6.029,13.3033,4.60096,2470.624,2023-8-29T02:17:31Z
2023-08-29T00:18:13Z,42.805,6.029,13.3029,4.60096,2470.624,2023-8-29T02:20:34Z
2023-08-29T00:21:16Z,42.805,6.029,13.3034,4.60097,2470.6,2023-8-29T02:23:37Z
2023-08-29T00:24:19Z,42.805,6.029,13.3033,4.60096,2470.624,2023-8-29T02:26:40Z
2023-08-29T00:27:23Z,42.805,6.029,13.3034,4.60095,2470.624,2023-8-29T02:29:43Z
2023-08-29T00:30:26Z,42.805,6.029,13.3031,4.60094,2470.646,2023-8-29T02:32:46Z
2023-08-29T00:33:29Z,42.805,6.029,13.3031,4.60096,2470.6,2023-8-29T02:35:49Z
2023-08-29T00:36:32Z,42.805,6.029,13.3035,4.60095,2470.637,2023-8-29T02:38:52Z
2023-08-29T00:39:35Z,42.805,6.029,13.3033,4.60094,2470.624,2023-8-29T02:41:55Z
2023-08-29T00:42:38Z,42.805,6.029,13.3034,4.60095,2470.614,2023-8-29T02:44:58Z
2023-08-29T00:45:41Z,42.805,6.029,13.3030,4.60096,2470.614,2023-8-29T02:48:02Z
2023-08-29T00:48:44Z,42.805,6.029,13.3034,4.60095,2470.624,2023-8-29T02:51:05Z
2023-08-29T00:51:47Z,42.805,6.029,13.3032,4.60094,2470.624,2023-8-29T02:54:08Z
2023-08-29T00:54:50Z,42.805,6.029,13.3029,4.60096,2470.646,2023-8-29T02:57:11Z
2023-08-29T00:57:53Z,42.805,6.029,13.3033,4.60094,2470.637,2023-8-29T03:00:14Z
2023-08-29T01:00:56Z,42.805,6.029,13.3032,4.60094,2470.646,2023-8-29T03:03:17Z
2023-08-29T01:04:00Z,42.805,6.029,13.3034,4.60097,2470.661,2023-8-29T03:06:20Z
2023-08-29T01:07:03Z,42.805,6.029,13.3031,4.60095,2470.6,2023-8-29T03:09:23Z
2023-08-29T01:10:06Z,42.805,6.029,13.3031,4.60096,2470.624,2023-8-29T03:12:26Z
2023-08-29T01:13:09Z,42.805,6.029,13.3028,4.60094,2470.624,2023-8-29T03:15:29Z
2023-08-29T01:16:12Z,42.805,6.029,13.3036,4.60096,2470.661,2023-8-29T03:18:32Z
2023-08-29T01:19:15Z,42.805,6.029,13.3035,4.60096,2470.646,2023-8-29T03:21:35Z
2023-08-29T01:22:18Z,42.805,6.029,13.3028,4.60096,2470.646,2023-8-29T03:24:39Z
2023-08-29T01:25:21Z,42.805,6.029,13.3031,4.60095,2470.646,2023-8-29T03:27:42Z
2023-08-29T01:28:24Z,42.805,6.029,13.3030,4.60094,2470.624,2023-8-29T03:30:45Z
2023-08-29T01:31:27Z,42.805,6.029,13.3034,4.60095,2470.646,2023-8-29T03:33:48Z
2023-08-29T01:34:30Z,42.805,6.029,13.3033,4.60094,2470.646,2023-8-29T03:36:51Z
2023-08-29T01:37:33Z,42.805,6.029,13.3036,4.60095,2470.6,2023-8-29T03:39:54Z
2023-08-29T01:40:37Z,42.805,6.029,13.3030,4.60097,2470.646,2023-8-29T03:42:57Z
2023-08-29T01:43:40Z,42.805,6.029,13.3034,4.60094,2470.624,2023-8-29T03:46:00Z
2023-08-29T01:46:43Z,42.805,6.029,13.3038,4.60094,2470.646,2023-8-29T03:49:03Z
2023-08-29T01:49:46Z,42.805,6.029,13.3030,4.60096,2470.646,2023-8-29T03:52:06Z
2023-08-29T01:52:49Z,42.805,6.029,13.3035,4.60094,2470.624,2023-8-29T03:55:09Z
2023-08-29T01:55:52Z,42.805,6.029,13.3034,4.60094,2470.637,2023-8-29T03:58:12Z
2023-08-29T01:58:55Z,42.805,6.029,13.3030,4.60093,2470.646,2023-8-29T04:01:16Z
2023-08-29T02:01:58Z,42.805,6.029,13.3031,4.60092,2470.624,2023-8-29T04:04:19Z
2023-08-29T02:05:01Z,42.805,6.029,13.3032,4.60095,2470.624,2023-8-29T04:07:22Z
2023-08-29T02:08:04Z,42.805,6.029,13.3032,4.60092,2470.661,2023-8-29T04:10:25Z
2023-08-29T02:11:07Z,42.805,6.029,13.3031,4.60092,2470.624,2023-8-29T04:13:28Z
2023-08-29T02:14:10Z,42.805,6.029,13.3031,4.60092,2470.637,2023-8-29T04:16:31Z
2023-08-29T02:17:14Z,42.805,6.029,13.3035,4.60092,2470.646,2023-8-29T04:19:34Z
2023-08-29T02:20:17Z,42.805,6.029,13.3032,4.60092,2470.646,2023-8-29T04:22:37Z
2023-08-29T02:23:20Z,42.805,6.029,13.3034,4.60092,2470.624,2023-8-29T04:25:40Z
2023-08-29T02:26:23Z,42.805,6.029,13.3035,4.60093,2470.624,2023-8-29T04:28:43Z
2023-08-29T02:29:26Z,42.805,6.029,13.3032,4.60093,2470.646,2023-8-29T04:31:46Z
2023-08-29T02:32:29Z,42.805,6.029,13.3036,4.60094,2470.717,2023-8-29T04:34:49Z
2023-08-29T02:35:32Z,42.805,6.029,13.3030,4.60092,2470.661,2023-8-29T04:37:53Z
2023-08-29T02:38:35Z,42.805,6.029,13.3032,4.60092,2470.661,2023-8-29T04:40:56Z
2023-08-29T02:41:38Z,42.805,6.029,13.3031,4.60092,2470.661,2023-8-29T04:43:59Z
2023-08-29T02:44:41Z,42.805,6.029,13.3032,4.60093,2470.661,2023-8-29T04:47:02Z
2023-08-29T02:47:44Z,42.805,6.029,13.3034,4.60092,2470.707,2023-8-29T04:50:05Z
2023-08-29T02:50:47Z,42.805,6.029,13.3034,4.60092,2470.67,2023-8-29T04:53:08Z
2023-08-29T02:53:51Z,42.805,6.029,13.3032,4.60092,2470.67,2023-8-29T04:56:11Z
2023-08-29T02:56:54Z,42.805,6.029,13.3035,4.60093,2470.693,2023-8-29T04:59:14Z
2023-08-29T02:59:57Z,42.805,6.029,13.3031,4.60092,2470.693,2023-8-29T05:02:17Z
2023-08-29T03:03:00Z,42.805,6.029,13.3033,4.60092,2470.67,2023-8-29T05:05:20Z
2023-08-29T03:06:03Z,42.805,6.029,13.3031,4.60092,2470.656,2023-8-29T05:08:23Z
2023-08-29T03:09:06Z,42.805,6.029,13.3032,4.60092,2470.707,2023-8-29T05:11:26Z
2023-08-29T03:12:09Z,42.805,6.029,13.3033,4.60092,2470.693,2023-8-29T05:14:29Z
2023-08-29T03:15:12Z,42.805,6.029,13.3030,4.60093,2470.67,2023-8-29T05:17:33Z
2023-08-29T03:18:15Z,42.805,6.029,13.3028,4.60092,2470.693,2023-8-29T05:20:36Z
2023-08-29T03:21:18Z,42.805,6.029,13.3034,4.60091,2470.693,2023-8-29T05:23:39Z
2023-08-29T03:24:21Z,42.805,6.029,13.3031,4.60092,2470.693,2023-8-29T05:26:42Z
2023-08-29T03:27:24Z,42.805,6.029,13.3031,4.60092,2470.693,2023-8-29T05:29:45Z
2023-08-29T03:30:28Z,42.805,6.029,13.3031,4.60092,2470.693,2023-8-29T05:32:48Z
2023-08-29T03:33:31Z,42.805,6.029,13.3034,4.60093,2470.693,2023-8-29T05:35:51Z
2023-08-29T03:36:34Z,42.805,6.029,13.3034,4.60092,2470.717,2023-8-29T05:38:54Z
2023-08-29T03:39:37Z,42.805,6.029,13.3029,4.60091,2470.707,2023-8-29T05:41:57Z
2023-08-29T03:42:40Z,42.805,6.029,13.3033,4.60092,2470.73,2023-8-29T05:45:00Z
2023-08-29T03:45:43Z,42.805,6.029,13.3031,4.60092,2470.67,2023-8-29T05:48:03Z
2023-08-29T03:48:46Z,42.805,6.029,13.3031,4.60092,2470.717,2023-8-29T05:51:07Z
2023-08-29T03:51:49Z,42.805,6.029,13.3032,4.60092,2470.707,2023-8-29T05:54:10Z
2023-08-29T03:54:52Z,42.805,6.029,13.3032,4.60092,2470.707,2023-8-29T05:57:13Z
2023-08-29T03:57:55Z,42.805,6.029,13.3034,4.60095,2470.717,2023-8-29T06:00:16Z
2023-08-29T04:00:58Z,42.805,6.029,13.3030,4.60096,2470.73,2023-8-29T06:03:19Z
2023-08-29T04:04:01Z,42.805,6.029,13.3031,4.60092,2470.73,2023-8-29T06:06:22Z
2023-08-29T04:07:04Z,42.805,6.029,13.3031,4.60092,2470.73,2023-8-29T06:09:25Z
2023-08-29T04:10:08Z,42.805,6.029,13.3032,4.60092,2470.73,2023-8-29T06:12:28Z
2023-08-29T04:13:11Z,42.805,6.029,13.3031,4.60092,2470.693,2023-8-29T06:15:31Z
2023-08-29T04:16:14Z,42.805,6.029,13.3031,4.60092,2470.73,2023-8-29T06:18:34Z
2023-08-29T04:19:17Z,42.805,6.029,13.3032,4.60095,2470.717,2023-8-29T06:21:37Z
2023-08-29T04:22:20Z,42.805,6.029,13.3031,4.60092,2470.717,2023-8-29T06:24:40Z
2023-08-29T04:25:23Z,42.805,6.029,13.3031,4.60093,2470.73,2023-8-29T06:27:43Z
2023-08-29T04:28:26Z,42.805,6.029,13.3033,4.60093,2470.717,2023-8-29T06:30:47Z
2023-08-29T04:31:29Z,42.805,6.029,13.3033,4.60094,2470.777,2023-8-29T06:33:50Z
2023-08-29T04:34:32Z,42.805,6.029,13.3033,4.60095,2470.73,2023-8-29T06:36:53Z
2023-08-29T04:37:35Z,42.805,6.029,13.3031,4.60093,2470.717,2023-8-29T06:39:56Z
2023-08-29T04:40:38Z,42.805,6.029,13.3033,4.60092,2470.74,2023-8-29T06:42:59Z
2023-08-29T04:43:42Z,42.805,6.029,13.3030,4.60098,2470.8,2023-8-29T06:46:02Z
2023-08-29T04:46:45Z,42.805,6.029,13.3030,4.60092,2470.754,2023-8-29T06:49:05Z
2023-08-29T04:49:48Z,42.805,6.029,13.3034,4.60092,2470.74,2023-8-29T06:52:08Z
2023-08-29T04:52:51Z,42.805,6.029,13.3034,4.60092,2470.777,2023-8-29T06:55:11Z
2023-08-29T04:55:54Z,42.805,6.029,13.3030,4.60093,2470.777,2023-8-29T06:58:14Z
2023-08-29T04:58:57Z,42.805,6.029,13.3031,4.60092,2470.777,2023-8-29T07:01:17Z
2023-08-29T05:02:00Z,42.805,6.029,13.3032,4.60098,2470.763,2023-8-29T07:04:21Z
2023-08-29T05:05:03Z,42.805,6.029,13.3029,4.60092,2470.74,2023-8-29T07:07:24Z
2023-08-29T05:08:06Z,42.805,6.029,13.3029,4.60092,2470.74,2023-8-29T07:10:27Z
2023-08-29T05:11:09Z,42.805,6.029,13.3032,4.60094,2470.763,2023-8-29T07:13:30Z
2023-08-29T05:14:12Z,42.805,6.029,13.3029,4.60093,2470.74,2023-8-29T07:16:33Z
2023-08-29T05:17:15Z,42.805,6.029,13.3030,4.60093,2470.763,2023-8-29T07:19:36Z
2023-08-29T05:20:19Z,42.805,6.029,13.3032,4.60092,2470.754,2023-8-29T07:22:39Z
2023-08-29T05:23:22Z,42.805,6.029,13.3034,4.60095,2470.74,2023-8-29T07:25:42Z
2023-08-29T05:26:25Z,42.805,6.029,13.3031,4.60092,2470.74,2023-8-29T07:28:45Z
2023-08-29T05:29:28Z,42.805,6.029,13.3029,4.60093,2470.763,2023-8-29T07:31:48Z
2023-08-29T05:32:31Z,42.805,6.029,13.3031,4.60096,2470.74,2023-8-29T07:34:51Z
2023-08-29T05:35:34Z,42.805,6.029,13.3031,4.60093,2470.777,2023-8-29T07:37:54Z
2023-08-29T05:38:37Z,42.805,6.029,13.3029,4.60092,2470.754,2023-8-29T07:40:57Z
2023-08-29T05:41:40Z,42.805,6.029,13.3031,4.60093,2470.763,2023-8-29T07:44:01Z
2023-08-29T05:44:43Z,42.805,6.029,13.3032,4.60094,2470.763,2023-8-29T07:47:04Z
2023-08-29T05:47:46Z,42.805,6.029,13.3031,4.60093,2470.74,2023-8-29T07:50:07Z
2023-08-29T05:50:49Z,42.805,6.029,13.3029,4.60094,2470.74,2023-8-29T07:53:10Z
2023-08-29T05:53:52Z,42.805,6.029,13.3032,4.60093,2470.74,2023-8-29T07:56:13Z
2023-08-29T05:56:56Z,42.805,6.029,13.3029,4.60094,2470.74,2023-8-29T07:59:16Z
2023-08-29T05:59:59Z,42.805,6.029,13.3032,4.60095,2470.777,2023-8-29T08:02:19Z
2023-08-29T06:03:02Z,42.805,6.029,13.3035,4.60092,2470.787,2023-8-29T08:05:22Z
2023-08-29T06:06:05Z,42.805,6.029,13.3031,4.60099,2470.763,2023-8-29T08:08:25Z
2023-08-29T06:09:08Z,42.805,6.029,13.3031,4.60092,2470.754,2023-8-29T08:11:28Z
2023-08-29T06:12:11Z,42.805,6.029,13.3033,4.60093,2470.74,2023-8-29T08:14:31Z
2023-08-29T06:15:14Z,42.805,6.029,13.3031,4.60093,2470.763,2023-8-29T08:17:35Z
2023-08-29T06:18:17Z,42.805,6.029,13.3031,4.60093,2470.777,2023-8-29T08:20:38Z
2023-08-29T06:21:20Z,42.805,6.029,13.3031,4.60093,2470.754,2023-8-29T08:23:41Z
2023-08-29T06:24:23Z,42.805,6.029,13.3031,4.60094,2470.777,2023-8-29T08:26:44Z
2023-08-29T06:27:26Z,42.805,6.029,13.3033,4.60094,2470.717,2023-8-29T08:29:47Z
2023-08-29T06:30:29Z,42.805,6.029,13.3036,4.60100,2470.777,2023-8-29T08:32:50Z
2023-08-29T06:33:33Z,42.805,6.029,13.3034,4.60093,2470.763,2023-8-29T08:35:53Z
2023-08-29T06:36:36Z,42.805,6.029,13.3032,4.60093,2470.74,2023-8-29T08:38:56Z
2023-08-29T06:39:39Z,42.805,6.029,13.3031,4.60093,2470.754,2023-8-29T08:41:59Z
2023-08-29T06:42:42Z,42.805,6.029,13.3034,4.60094,2470.717,2023-8-29T08:45:02Z
2023-08-29T06:45:45Z,42.805,6.029,13.3036,4.60094,2470.74,2023-8-29T08:48:05Z
2023-08-29T06:48:48Z,42.805,6.029,13.3032,4.60097,2470.763,2023-8-29T08:51:08Z
2023-08-29T06:51:51Z,42.805,6.029,13.3032,4.60097,2470.754,2023-8-29T08:54:12Z
2023-08-29T06:54:54Z,42.805,6.029,13.3032,4.60096,2470.754,2023-8-29T08:57:15Z
2023-08-29T06:57:57Z,42.805,6.029,13.3029,4.60102,2470.74,2023-8-29T09:00:18Z
2023-08-29T07:01:00Z,42.805,6.029,13.3026,4.60096,2470.763,2023-8-29T09:03:21Z
2023-08-29T07:04:03Z,42.805,6.029,13.3031,4.60104,2470.74,2023-8-29T09:06:24Z
2023-08-29T07:07:06Z,42.805,6.029,13.3033,4.60102,2470.763,2023-8-29T09:09:27Z
2023-08-29T07:10:10Z,42.805,6.029,13.3031,4.60095,2470.74,2023-8-29T09:12:30Z
2023-08-29T07:13:13Z,42.805,6.029,13.3035,4.60099,2470.74,2023-8-29T09:15:33Z
2023-08-29T07:16:16Z,42.805,6.029,13.3031,4.60095,2470.74,2023-8-29T09:18:36Z
2023-08-29T07:19:19Z,42.805,6.029,13.3032,4.60103,2470.74,2023-8-29T09:21:39Z
2023-08-29T07:22:22Z,42.805,6.029,13.3036,4.60097,2470.754,2023-8-29T09:24:42Z
2023-08-29T07:25:25Z,42.805,6.029,13.3031,4.60099,2470.754,2023-8-29T09:27:45Z
2023-08-29T07:28:28Z,42.805,6.029,13.3030,4.60104,2470.73,2023-8-29T09:30:49Z
2023-08-29T07:31:31Z,42.805,6.029,13.3031,4.60110,2470.717,2023-8-29T09:33:52Z
2023-08-29T07:34:34Z,42.805,6.029,13.3031,4.60110,2470.73,2023-8-29T09:36:55Z
2023-08-29T07:37:37Z,42.805,6.029,13.3034,4.60111,2470.74,2023-8-29T09:39:58Z
2023-08-29T07:40:40Z,42.805,6.029,13.3036,4.60114,2470.763,2023-8-29T09:43:01Z
2023-08-29T07:43:43Z,42.805,6.029,13.3029,4.60099,2470.717,2023-8-29T09:46:04Z
2023-08-29T07:46:47Z,42.805,6.029,13.3034,4.60097,2470.74,2023-8-29T09:49:07Z
2023-08-29T07:49:50Z,42.805,6.029,13.3036,4.60097,2470.717,2023-8-29T09:52:10Z
2023-08-29T07:52:53Z,42.805,6.029,13.3033,4.60106,2470.754,2023-8-29T09:55:13Z
2023-08-29T07:55:56Z,42.805,6.029,13.3031,4.60107,2470.73,2023-8-29T09:58:16Z
2023-08-29T07:58:59Z,42.805,6.029,13.3034,4.60112,2470.717,2023-8-29T10:01:19Z
2023-08-29T08:02:02Z,42.805,6.029,13.3036,4.60110,2470.717,2023-8-29T10:04:22Z
2023-08-29T08:05:05Z,42.805,6.029,13.3033,4.60102,2470.754,2023-8-29T10:07:26Z
2023-08-29T08:08:08Z,42.805,6.029,13.3029,4.60097,2470.754,2023-8-29T10:10:29Z
2023-08-29T08:11:11Z,42.805,6.029,13.3034,4.60102,2470.717,2023-8-29T10:13:32Z
2023-08-29T08:14:14Z,42.805,6.029,13.3034,4.60102,2470.717,2023-8-29T10:16:35Z
2023-08-29T08:17:17Z,42.805,6.029,13.3043,4.60113,2470.73,2023-8-29T10:19:38Z
2023-08-29T08:20:20Z,42.805,6.029,13.3033,4.60102,2470.73,2023-8-29T10:22:41Z
2023-08-29T08:23:24Z,42.805,6.029,13.3033,4.60095,2470.693,2023-8-29T10:25:44Z
2023-08-29T08:26:27Z,42.805,6.029,13.3031,4.60097,2470.73,2023-8-29T10:28:47Z
2023-08-29T08:29:30Z,42.805,6.029,13.3035,4.60097,2470.693,2023-8-29T10:31:50Z
2023-08-29T08:32:31Z,42.805,6.029,13.3034,4.60104,2470.67,2023-8-29T10:34:51Z
2023-08-29T08:35:34Z,42.805,6.029,13.3036,4.60110,2470.693,2023-8-29T10:37:55Z
2023-08-29T08:38:37Z,42.805,6.029,13.3039,4.60106,2470.67,2023-8-29T10:40:58Z
2023-08-29T08:41:40Z,42.805,6.029,13.3041,4.60104,2470.693,2023-8-29T10:44:01Z
2023-08-29T08:44:43Z,42.805,6.029,13.3032,4.60111,2470.717,2023-8-29T10:47:04Z
2023-08-29T08:47:46Z,42.805,6.029,13.3036,4.60132,2470.693,2023-8-29T10:50:07Z
2023-08-29T08:50:49Z,42.805,6.029,13.3033,4.60104,2470.707,2023-8-29T10:53:10Z
2023-08-29T08:53:53Z,42.805,6.029,13.3036,4.60104,2470.707,2023-8-29T10:56:13Z
2023-08-29T08:56:56Z,42.805,6.029,13.3034,4.60102,2470.684,2023-8-29T10:59:16Z
2023-08-29T08:59:59Z,42.805,6.029,13.3032,4.60101,2470.707,2023-8-29T11:02:19Z
2023-08-29T09:03:02Z,42.805,6.029,13.3029,4.60110,2470.717,2023-8-29T11:05:22Z
2023-08-29T09:06:05Z,42.805,6.029,13.3031,4.60108,2470.693,2023-8-29T11:08:25Z
2023-08-29T09:09:08Z,42.805,6.029,13.3034,4.60098,2470.717,2023-8-29T11:11:29Z
2023-08-29T09:12:11Z,42.805,6.029,13.3029,4.60097,2470.684,2023-8-29T11:14:32Z
2023-08-29T09:15:14Z,42.805,6.029,13.3033,4.60098,2470.693,2023-8-29T11:17:35Z
2023-08-29T09:18:17Z,42.805,6.029,13.3031,4.60099,2470.646,2023-8-29T11:20:38Z
2023-08-29T09:21:20Z,42.805,6.029,13.3035,4.60100,2470.67,2023-8-29T11:23:41Z
2023-08-29T09:24:23Z,42.805,6.029,13.3032,4.60101,2470.707,2023-8-29T11:26:44Z
2023-08-29T09:27:27Z,42.805,6.029,13.3035,4.60097,2470.684,2023-8-29T11:29:47Z
2023-08-29T09:30:30Z,42.805,6.029,13.3029,4.60099,2470.67,2023-8-29T11:32:50Z
2023-08-29T09:33:33Z,42.805,6.029,13.3029,4.60099,2470.684,2023-8-29T11:35:53Z
2023-08-29T09:36:36Z,42.805,6.029,13.3034,4.60099,2470.684,2023-8-29T11:38:56Z
2023-08-29T09:39:39Z,42.805,6.029,13.3028,4.60101,2470.661,2023-8-29T11:41:59Z
2023-08-29T09:42:42Z,42.805,6.029,13.3035,4.60104,2470.693,2023-8-29T11:45:02Z
2023-08-29T09:45:45Z,42.805,6.029,13.3031,4.60099,2470.661,2023-8-29T11:48:06Z
2023-08-29T09:48:48Z,42.805,6.029,13.3033,4.60110,2470.646,2023-8-29T11:51:09Z
2023-08-29T09:51:51Z,42.805,6.029,13.3032,4.60108,2470.624,2023-8-29T11:54:12Z
2023-08-29T09:54:54Z,42.805,6.029,13.3029,4.60102,2470.646,2023-8-29T11:57:15Z
2023-08-29T09:57:57Z,42.805,6.029,13.3031,4.60099,2470.646,2023-8-29T12:00:18Z
2023-08-29T10:01:00Z,42.805,6.029,13.3034,4.60104,2470.684,2023-8-29T12:03:21Z
2023-08-29T10:04:04Z,42.805,6.029,13.3033,4.60099,2470.637,2023-8-29T12:06:24Z
2023-08-29T10:07:07Z,42.805,6.029,13.3029,4.60102,2470.67,2023-8-29T12:09:27Z
2023-08-29T10:10:10Z,42.805,6.029,13.3030,4.60102,2470.661,2023-8-29T12:12:30Z
2023-08-29T10:13:13Z,42.805,6.029,13.3034,4.60108,2470.624,2023-8-29T12:15:33Z
2023-08-29T10:16:16Z,42.805,6.029,13.3029,4.60104,2470.646,2023-8-29T12:18:36Z
2023-08-29T10:19:19Z,42.805,6.029,13.3029,4.60103,2470.67,2023-8-29T12:21:40Z
2023-08-29T10:22:22Z,42.805,6.029,13.3030,4.60102,2470.646,2023-8-29T12:24:43Z
2023-08-29T10:25:25Z,42.805,6.029,13.3033,4.60099,2470.661,2023-8-29T12:27:46Z
2023-08-29T10:28:28Z,42.805,6.029,13.3034,4.60099,2470.624,2023-8-29T12:30:49Z
2023-08-29T10:31:30Z,42.805,6.029,13.3032,4.60103,2470.637,2023-8-29T12:33:50Z
2023-08-29T10:34:33Z,42.805,6.029,13.3034,4.60097,2470.624,2023-8-29T12:36:53Z
2023-08-29T10:37:36Z,42.805,6.029,13.3035,4.60096,2470.624,2023-8-29T12:39:56Z
2023-08-29T10:40:39Z,42.805,6.029,13.3031,4.60093,2470.661,2023-8-29T12:42:59Z
2023-08-29T10:43:42Z,42.805,6.029,13.3032,4.60096,2470.624,2023-8-29T12:46:02Z
2023-08-29T10:46:45Z,42.805,6.029,13.3031,4.60094,2470.646,2023-8-29T12:49:06Z
2023-08-29T10:49:48Z,42.805,6.029,13.3031,4.60096,2470.6,2023-8-29T12:52:09Z
2023-08-29T10:52:51Z,42.805,6.029,13.3031,4.60097,2470.67,2023-8-29T12:55:12Z
2023-08-29T10:55:54Z,42.805,6.029,13.3035,4.60097,2470.661,2023-8-29T12:58:15Z
2023-08-29T10:58:57Z,42.805,6.029,13.3034,4.60095,2470.624,2023-8-29T13:01:18Z
2023-08-29T11:02:00Z,42.805,6.029,13.3031,4.60097,2470.6,2023-8-29T13:04:21Z
2023-08-29T11:05:04Z,42.805,6.029,13.3029,4.60097,2470.624,2023-8-29T13:07:24Z
2023-08-29T11:08:07Z,42.805,6.029,13.3033,4.60096,2470.6,2023-8-29T13:10:27Z
2023-08-29T11:11:10Z,42.805,6.029,13.3031,4.60097,2470.661,2023-8-29T13:13:30Z
2023-08-29T11:14:13Z,42.805,6.029,13.3033,4.60097,2470.624,2023-8-29T13:16:33Z
2023-08-29T11:17:16Z,42.805,6.029,13.3029,4.60095,2470.637,2023-8-29T13:19:36Z
2023-08-29T11:20:19Z,42.805,6.029,13.3031,4.60094,2470.633,2023-8-29T13:22:40Z
2023-08-29T11:23:22Z,42.805,6.029,13.3032,4.60096,2470.637,2023-8-29T13:25:43Z
2023-08-29T11:26:25Z,42.805,6.029,13.3031,4.60096,2470.624,2023-8-29T13:28:46Z
2023-08-29T11:29:28Z,42.805,6.029,13.3034,4.60097,2470.637,2023-8-29T13:31:49Z
2023-08-29T11:32:31Z,42.805,6.029,13.3033,4.60097,2470.637,2023-8-29T13:34:52Z
2023-08-29T11:35:34Z,42.805,6.029,13.3031,4.60097,2470.6,2023-8-29T13:37:55Z
2023-08-29T11:38:38Z,42.805,6.029,13.3031,4.60094,2470.6,2023-8-29T13:40:58Z
2023-08-29T11:41:41Z,42.805,6.029,13.3032,4.60095,2470.614,2023-8-29T13:44:01Z
2023-08-29T11:44:44Z,42.805,6.029,13.3032,4.60096,2470.624,2023-8-29T13:47:04Z
2023-08-29T11:47:47Z,42.805,6.029,13.3030,4.60097,2470.637,2023-8-29T13:50:07Z
2023-08-29T11:50:50Z,42.805,6.029,13.3034,4.60095,2470.637,2023-8-29T13:53:10Z
2023-08-29T11:53:53Z,42.805,6.029,13.3029,4.60095,2470.6,2023-8-29T13:56:14Z
2023-08-29T11:56:56Z,42.805,6.029,13.3026,4.60094,2470.6,2023-8-29T13:59:17Z
2023-08-29T11:59:59Z,42.805,6.029,13.3030,4.60096,2470.624,2023-8-29T14:02:20Z
2023-08-29T12:03:02Z,42.805,6.029,13.3031,4.60094,2470.614,2023-8-29T14:05:23Z
2023-08-29T12:06:05Z,42.805,6.029,13.3032,4.60095,2470.637,2023-8-29T14:08:26Z
2023-08-29T12:09:08Z,42.805,6.029,13.3032,4.60094,2470.637,2023-8-29T14:11:29Z
2023-08-29T12:12:12Z,42.805,6.029,13.3034,4.60095,2470.637,2023-8-29T14:14:32Z
2023-08-29T12:15:15Z,42.805,6.029,13.3033,4.60095,2470.6,2023-8-29T14:17:35Z
2023-08-29T12:18:18Z,42.805,6.029,13.3033,4.60094,2470.624,2023-8-29T14:20:38Z
2023-08-29T12:21:21Z,42.805,6.029,13.3036,4.60097,2470.624,2023-8-29T14:23:41Z
2023-08-29T12:24:24Z,42.805,6.029,13.3034,4.60094,2470.637,2023-8-29T14:26:44Z
2023-08-29T12:27:27Z,42.805,6.029,13.3029,4.60097,2470.637,2023-8-29T14:29:48Z
2023-08-29T12:30:30Z,42.805,6.029,13.3033,4.60093,2470.637,2023-8-29T14:32:51Z
2023-08-29T12:33:33Z,42.805,6.029,13.3034,4.60094,2470.614,2023-8-29T14:35:54Z
2023-08-29T12:36:36Z,42.805,6.029,13.3031,4.60095,2470.6,2023-8-29T14:38:57Z
2023-08-29T12:39:39Z,42.805,6.029,13.3030,4.60093,2470.624,2023-8-29T14:42:00Z
2023-08-29T12:42:42Z,42.805,6.029,13.3032,4.60095,2470.637,2023-8-29T14:45:03Z
2023-08-29T12:45:46Z,42.805,6.029,13.3034,4.60094,2470.6,2023-8-29T14:48:06Z
2023-08-29T12:48:49Z,42.805,6.029,13.3030,4.60092,2470.624,2023-8-29T14:51:09Z
2023-08-29T12:51:52Z,42.805,6.029,13.3032,4.60095,2470.591,2023-8-29T14:54:12Z
2023-08-29T12:54:55Z,42.805,6.029,13.3033,4.60095,2470.624,2023-8-29T14:57:15Z
2023-08-29T12:57:58Z,42.805,6.029,13.3035,4.60097,2470.646,2023-8-29T15:00:18Z
2023-08-29T13:01:01Z,42.805,6.029,13.3033,4.60094,2470.624,2023-8-29T15:03:21Z
2023-08-29T13:04:04Z,42.805,6.029,13.3031,4.60095,2470.661,2023-8-29T15:06:25Z
2023-08-29T13:07:07Z,42.805,6.029,13.3030,4.60094,2470.646,2023-8-29T15:09:28Z
2023-08-29T13:10:10Z,42.805,6.029,13.3035,4.60096,2470.661,2023-8-29T15:12:31Z
2023-08-29T13:13:13Z,42.805,6.029,13.3034,4.60094,2470.646,2023-8-29T15:15:34Z
2023-08-29T13:16:16Z,42.805,6.029,13.3029,4.60093,2470.661,2023-8-29T15:18:37Z
2023-08-29T13:19:19Z,42.805,6.029,13.3033,4.60096,2470.624,2023-8-29T15:21:40Z
2023-08-29T13:22:23Z,42.805,6.029,13.3029,4.60092,2470.624,2023-8-29T15:24:43Z
2023-08-29T13:25:26Z,42.805,6.029,13.3031,4.60094,2470.646,2023-8-29T15:27:46Z
2023-08-29T13:28:29Z,42.805,6.029,13.3029,4.60097,2470.646,2023-8-29T15:30:49Z
2023-08-29T13:31:32Z,42.805,6.029,13.3029,4.60094,2470.661,2023-8-29T15:33:52Z
2023-08-29T13:34:35Z,42.805,6.029,13.3032,4.60093,2470.637,2023-8-29T15:36:55Z
2023-08-29T13:37:38Z,42.805,6.029,13.3027,4.60092,2470.624,2023-8-29T15:39:59Z
2023-08-29T13:40:41Z,42.805,6.029,13.3034,4.60096,2470.624,2023-8-29T15:43:02Z
2023-08-29T13:43:44Z,42.805,6.029,13.3031,4.60094,2470.646,2023-8-29T15:46:05Z
2023-08-29T13:46:47Z,42.805,6.029,13.3032,4.60096,2470.661,2023-8-29T15:49:08Z
2023-08-29T13:49:50Z,42.805,6.029,13.3033,4.60095,2470.646,2023-8-29T15:52:11Z
2023-08-29T13:52:53Z,42.805,6.029,13.3033,4.60092,2470.646,2023-8-29T15:55:14Z
2023-08-29T13:55:57Z,42.805,6.029,13.3034,4.60093,2470.67,2023-8-29T15:58:17Z
2023-08-29T13:59:00Z,42.805,6.029,13.3032,4.60091,2470.684,2023-8-29T16:01:20Z
2023-08-29T14:02:03Z,42.805,6.029,13.3034,4.60092,2470.67,2023-8-29T16:04:23Z
2023-08-29T14:05:06Z,42.805,6.029,13.3029,4.60092,2470.661,2023-8-29T16:07:26Z
2023-08-29T14:08:09Z,42.805,6.029,13.3034,4.60095,2470.646,2023-8-29T16:10:29Z
2023-08-29T14:11:12Z,42.805,6.029,13.3034,4.60093,2470.646,2023-8-29T16:13:32Z
2023-08-29T14:14:15Z,42.805,6.029,13.3031,4.60094,2470.67,2023-8-29T16:16:36Z
2023-08-29T14:17:18Z,42.805,6.029,13.3027,4.60093,2470.67,2023-8-29T16:19:39Z
2023-08-29T14:20:21Z,42.805,6.029,13.3031,4.60092,2470.684,2023-8-29T16:22:42Z
2023-08-29T14:23:24Z,42.805,6.029,13.3034,4.60092,2470.684,2023-8-29T16:25:45Z
2023-08-29T14:26:27Z,42.805,6.029,13.3029,4.60095,2470.67,2023-8-29T16:28:48Z
2023-08-29T14:29:31Z,42.805,6.029,13.3034,4.60092,2470.693,2023-8-29T16:31:51Z
2023-08-29T14:32:34Z,42.805,6.029,13.3032,4.60093,2470.67,2023-8-29T16:34:54Z
2023-08-29T14:35:37Z,42.805,6.029,13.3030,4.60093,2470.717,2023-8-29T16:37:57Z
2023-08-29T14:38:40Z,42.805,6.029,13.3032,4.60093,2470.67,2023-8-29T16:41:00Z
2023-08-29T14:41:43Z,42.805,6.029,13.3031,4.60093,2470.717,2023-8-29T16:44:03Z
2023-08-29T14:44:46Z,42.805,6.029,13.3030,4.60092,2470.693,2023-8-29T16:47:06Z
2023-08-29T14:47:49Z,42.805,6.029,13.3029,4.60093,2470.73,2023-8-29T16:50:10Z
2023-08-29T14:50:52Z,42.805,6.029,13.3036,4.60094,2470.754,2023-8-29T16:53:13Z
2023-08-29T14:53:55Z,42.805,6.029,13.3031,4.60093,2470.717,2023-8-29T16:56:16Z
2023-08-29T14:56:58Z,42.805,6.029,13.3034,4.60093,2470.693,2023-8-29T16:59:19Z
2023-08-29T15:00:01Z,42.805,6.029,13.3036,4.60094,2470.684,2023-8-29T17:02:22Z
2023-08-29T15:03:04Z,42.805,6.029,13.3032,4.60092,2470.73,2023-8-29T17:05:25Z
2023-08-29T15:06:08Z,42.805,6.029,13.3037,4.60094,2470.74,2023-8-29T17:08:28Z
2023-08-29T15:09:11Z,42.805,6.029,13.3033,4.60092,2470.67,2023-8-29T17:11:31Z
2023-08-29T15:12:14Z,42.805,6.029,13.3031,4.60092,2470.703,2023-8-29T17:14:34Z
2023-08-29T15:15:17Z,42.805,6.029,13.3029,4.60091,2470.717,2023-8-29T17:17:37Z